Find Starlink 34652

NORAD ID: 64772 Int'l Des: 2025-147 Owner: SPXS Country: US Constellation: starlink operational
LEOCIRCULAR

現在のビュー

3D地球を読み込み中...

About Starlink 34652

Starlink 34652 (NORAD 64772) is a starlink constellation satellite (v2 mini) launched Jul 8, 2025 by SPXS of US. It operates in LEO, CIRCULAR orbit with a mass of 575.00 kg.

次回通過

Passes for default location (London). Set your location on the main map for personalized predictions.

高度履歴

Loading altitude history...

軌道要素

1 64772U 25147T 26263.14724544 .00019601 00000-0 58954-3 0 9996
2 64772 53.1580 55.2889 0001422 86.1934 273.9232 15.34409708 68583
Epoch: Sep 20, 2026 • Age: 13 hours

現在のステータス

高度 468.2 km
遠地点 / 近地点 N/A
速度 7.64 km/s
衛星直下点 53.22°N, 107.61°W
打ち上げ日 Jul 8, 2025
運用期間 1.2 years
タイプ internet

技術仕様

分類 Payload
質量 575.00 kg
乾燥質量 530.00 kg
長さ 0.30 m
スパン 29.00 m
形状 ? Box + pan
製造者 SPXS
バスタイプ Starlink V2MO
フェーズステータス In Orbit
所有者/国 SPXS/US

Most Searched